Weather History for KMDH - October, 2011

Change the Weather History Date:

Sunday, October 9, 2011

  Actual Average Record
Temperature  
Mean Temperature 64 °F -  
Max Temperature 79 °F 71 °F 92 °F (1928)
Min Temperature 50 °F 45 °F 24 °F (1917)
Growing Degree Days 14 (Base 50)    
Moisture  
Dew Point 51 °F    
Average Humidity 79    
Maximum Humidity 100    
Minimum Humidity 36    
Precipitation  
Precipitation 0.01 in - - ()
Sea Level Pressure  
Sea Level Pressure 30.26 in    
Wind  
Wind Speed 2 mph (SE)    
Max Wind Speed 12 mph    
Max Gust Speed 16 mph    
Visibility 6 miles    
Events Fog    
Averages and records for this station are not official NWS values.
T = Trace of Precipitation, MM = Missing Value Source: NWS Daily Summary

Daily Weather History Graph

Daily Weather History Graph

Search for Another Location

Airport or City:

Trip Planner

Search our weather history database for the weather conditions in past years. The results will help you decide how hot, cold, wet, or windy it might be!

Date:

Astronomy

Oct. 09, 2011 Rise Set
Actual Time 6:59 AM CDT 6:28 PM CDT
Civil Twilight 6:33 AM CDT 6:54 PM CDT
Nautical Twilight 6:02 AM CDT 7:25 PM CDT
Astronomical Twilight 5:32 AM CDT 7:55 PM CDT
Moon 5:04 PM CDT (10/9) 4:45 AM CDT (10/9)
Length of Visible Light 12h 21m
Length of Day
11h 28m
Waxing Gibbous, 95% of the Moon is Illuminated
Oct 9
Waxing Gibbous
Oct 11
Full
Oct 19
Last Quarter
Oct 26
New
Nov 2
First Quarter

Hourly Weather History & Observations

Time (CDT) Temp. Dew Point Humidity Pressure Visibility Wind Dir Wind Speed Gust Speed Precip Events Conditions
12:52 AM 60.1 °F 55.0 °F 83% 30.27 in 10.0 mi SE 3.5 mph - N/A   Clear
1:52 AM 57.0 °F 54.0 °F 89% 30.28 in 10.0 mi Calm Calm - N/A   Clear
2:32 AM 53.6 °F 51.8 °F 94% 30.27 in 0.8 mi Calm Calm - N/A   Clear
2:40 AM 53.6 °F 51.8 °F 94% 30.27 in 2.5 mi Calm Calm - N/A   Clear
2:47 AM 53.6 °F 51.8 °F 94% 30.27 in 6.0 mi Calm Calm - N/A   Clear
2:52 AM 53.1 °F 51.1 °F 93% 30.27 in 7.0 mi Calm Calm - N/A   Clear
3:25 AM 51.8 °F 51.8 °F 100% 30.27 in 2.5 mi Calm Calm - N/A   Clear
3:34 AM 51.8 °F 50.0 °F 94% 30.27 in 5.0 mi Calm Calm - N/A   Clear
3:52 AM 53.1 °F 51.1 °F 93% 30.26 in 6.0 mi Calm Calm - N/A   Clear
4:21 AM 51.8 °F 50.0 °F 94% 30.27 in 1.8 mi Calm Calm - N/A   Clear
4:45 AM 51.8 °F 48.2 °F 88% 30.27 in 3.0 mi Calm Calm - N/A   Clear
4:49 AM 51.8 °F 48.2 °F 88% 30.27 in 1.8 mi Calm Calm - N/A   Clear
4:52 AM 52.0 °F 48.9 °F 89% 30.27 in 1.2 mi Calm Calm - N/A   Clear
5:01 AM 51.8 °F 50.0 °F 94% 30.28 in 0.5 mi Calm Calm - N/A Fog Fog
5:13 AM 51.8 °F 50.0 °F 94% 30.29 in 2.0 mi Calm Calm - N/A   Clear
5:20 AM 51.8 °F 50.0 °F 94% 30.29 in 5.0 mi Calm Calm - 0.01 in   Clear
5:30 AM 51.8 °F 50.0 °F 94% 30.29 in 2.0 mi Calm Calm - 0.01 in   Clear
5:40 AM 51.8 °F 48.2 °F 88% 30.29 in 3.0 mi Calm Calm - 0.01 in   Clear
5:52 AM 50.0 °F 48.0 °F 93% 30.29 in 6.0 mi Calm Calm - 0.01 in   Clear
6:19 AM 50.0 °F 48.2 °F 94% 30.30 in 1.8 mi Calm Calm - N/A   Clear
6:29 AM 50.0 °F 48.2 °F 94% 30.30 in 3.0 mi Calm Calm - N/A   Clear
6:52 AM 50.0 °F 48.0 °F 93% 30.30 in 6.0 mi Calm Calm - N/A   Clear
7:52 AM 53.1 °F 51.1 °F 93% 30.31 in 6.0 mi Calm Calm - N/A   Clear
8:52 AM 61.0 °F 55.9 °F 83% 30.32 in 10.0 mi Calm Calm - N/A   Clear
9:52 AM 69.1 °F 55.0 °F 61% 30.33 in 10.0 mi South 5.8 mph - N/A   Clear
10:52 AM 73.0 °F 54.0 °F 51% 30.31 in 10.0 mi Variable 3.5 mph - N/A   Clear
11:52 AM 75.9 °F 52.0 °F 43% 30.29 in 10.0 mi SE 5.8 mph - N/A   Clear
12:52 PM 77.0 °F 53.1 °F 43% 30.27 in 10.0 mi East 10.4 mph 16.1 mph N/A   Clear
1:52 PM 78.1 °F 53.1 °F 42% 30.23 in 10.0 mi ESE 8.1 mph - N/A   Clear
2:52 PM 79.0 °F 50.0 °F 36% 30.21 in 10.0 mi SE 9.2 mph - N/A   Clear
3:52 PM 79.0 °F 50.0 °F 36% 30.19 in 10.0 mi ESE 11.5 mph - N/A   Clear
4:52 PM 78.1 °F 51.1 °F 39% 30.18 in 10.0 mi SSE 9.2 mph - N/A   Clear
5:52 PM 75.0 °F 54.0 °F 48% 30.17 in 10.0 mi SE 5.8 mph - N/A   Clear
6:52 PM 68.0 °F 55.0 °F 63% 30.17 in 10.0 mi Calm Calm - N/A   Clear
7:52 PM 61.0 °F 55.0 °F 81% 30.18 in 10.0 mi Calm Calm - N/A   Clear
8:52 PM 59.0 °F 55.0 °F 87% 30.18 in 10.0 mi Calm Calm - N/A   Clear
9:52 PM 57.0 °F 54.0 °F 89% 30.17 in 10.0 mi Calm Calm - N/A   Clear
10:52 PM 54.0 °F 52.0 °F 93% 30.17 in 10.0 mi Calm Calm - N/A   Clear